Meteo Giornale » Osservazioni meteo Stati Uniti (USA) » Chicago-O'Hare
ore: 12:51 - Osservazioni Meteo Chicago-O'Hare
Lat. 41° 58' N Lon. 87° 54' W Alt. 203 metri s.l.m.
33 °C
Nuvoloso
Temp. 24 Ore
25 °C
33 °C
Ovest/Sud-Ovest
14.8 Km/h
Dew point 23 °C
Umidità 55 %
Visibilità 10 Km
Il sole sorge alle ore 06:17
Il sole tramonta alle ore 19:25
| Data e Ora | Cielo e Fenomeni | T °C | DP °C | Um. % | Pres. hPa | Vis. km | Vento km/h | |
|---|---|---|---|---|---|---|---|---|
| Oggi h: 12:51 | Nuvoloso | 33 | 23 | 55 | 1014 | 10 | O/SO 14.8 | |
| Oggi h: 11:51 | Nuvoloso | 32 | 24 | 62 | 1015 | 10 | O/SO 16.7 | |
| Oggi h: 10:51 | Molto Nuvoloso | 31 | 24 | 66 | 1015 | 10 | O/SO 11.1 | |
| Oggi h: 09:51 | Molto Nuvoloso | 28 | 23 | 74 | 1015 | 10 | S/SO 11.1 | |
| Oggi h: 08:51 | Nuvoloso | 27 | 23 | 78 | 1015 | 10 | SO 11.1 | |
| Oggi h: 07:51 | Molto Nuvoloso | 26 | 22 | 78 | 1015 | 10 | S/SO 11.1 | |
| Oggi h: 06:51 | Molto Nuvoloso | 25 | 22 | 83 | 1014 | 10 | S/SO 7.4 | |
| Oggi h: 05:51 | Molto Nuvoloso | 25 | 22 | 83 | 1014 | 10 | N 5.5 | |
| Oggi h: 04:51 | Molto Nuvoloso | 26 | 22 | 78 | 1014 | 10 | SO 9.3 | |
| Oggi h: 03:51 | Molto Nuvoloso | 26 | 22 | 78 | 1013 | 10 | O/SO 11.1 | |
| Oggi h: 02:51 | Molto Nuvoloso | 26 | 22 | 78 | 1013 | 10 | SO 14.8 | |
| Oggi h: 01:51 | Molto Nuvoloso | 26 | 22 | 78 | 1013 | 10 | SO 11.1 | |
| Oggi h: 00:51 | Molto Nuvoloso | 26 | 22 | 78 | 1013 | 10 | SO 9.3 | |
| Ieri h: 23:51 | Molto Nuvoloso | 27 | 23 | 78 | 1013 | 10 | SO 13 | |
| Ieri h: 22:51 | Molto Nuvoloso | 27 | 23 | 78 | 1013 | 10 | SO 11.1 | |
| Ieri h: 21:51 | Molto Nuvoloso | 27 | 23 | 78 | 1013 | 10 | S/SO 11.1 | |
| Ieri h: 20:51 | Molto Nuvoloso | 27 | 23 | 78 | 1014 | 10 | S/SO 7.4 | |
| Ieri h: 19:51 | Molto Nuvoloso | 27 | 24 | 83 | 1013 | 10 | S/SO 9.3 | |
| Ieri h: 18:51 | Nuvoloso | 27 | 24 | 83 | 1012 | 10 | SE 11.1 | |
| Ieri h: 17:51 | Molto Nuvoloso | 28 | 24 | 78 | 1012 | 10 | S 11.1 | |
| Ieri h: 17:35 | Molto Nuvoloso | 27 | 24 | 83 | 1012 | 10 | S/SO 13 | |
| Ieri h: 17:15 | Temporale | 27 | 24 | 83 | 1013 | 10 | S 13 | |
| Ieri h: 17:06 | Temporale | 28 | 23 | 74 | 1013 | 6 | S/SO 14.8 | |
| Ieri h: 16:51 | Temporale | 29 | 22 | 66 | 1012 | 10 | S 9.3 | |
| Ieri h: 16:30 | Temporale | 29 | 23 | 70 | 1012 | 10 | O 9.3 | |
| Ieri h: 15:51 | Pioggia | 29 | 23 | 70 | 1013 | 10 | N 5.5 | |
| Ieri h: 14:51 | Pioggia | 28 | 22 | 69 | 1012 | 14 | O/SO 11.1 | |
| Ieri h: 14:21 | Temporale | 27 | 21 | 69 | 1012 | 13 | S/SO 16.7 | |
| Ieri h: 14:16 | Temporale | 27 | 21 | 69 | 1012 | 2 | S/SO 13 | |
| Ieri h: 14:10 | Temporale | 26 | 21 | 73 | 1012 | 11 | S/SO 14.8 | |
| Ieri h: 14:06 | Temporale | 27 | 21 | 69 | 1014 | 2 | S 14.8 | |
| Ieri h: 13:51 | Temporale | 29 | 20 | 58 | 1012 | 10 | S/SO 25.9 | |
| Ieri h: 13:44 | Temporale | 30 | 20 | 55 | 1013 | 10 | SO 24 | |



